contact:dominique.lefevre@mio.osupytheas.fr, maurice.libes@osupytheas.fr, didier.mallarino@osupytheas.fr
Project:EMSO http://www.emso-fr.org/EMSO-France
Depth: 2436.0 m
Title:EMSO Ligure Ouest : Data MII capteur MICROCAT
DateTime_Computer,Latitude,Longitude,Temperature,Conductivity,Pressure,DateTime_Instrument
DateTime_Computer,Latitude,Longitude,degC,S m-1,dbar,DateTime_Instrument
2022-05-20T00:01:04Z,42.805,6.029,13.3009,4.60061,2470.763,2022-5-20T02:02:45Z
2022-05-20T00:04:07Z,42.805,6.029,13.3005,4.60049,2470.74,2022-5-20T02:05:48Z
2022-05-20T00:07:10Z,42.805,6.029,13.3009,4.60051,2470.754,2022-5-20T02:08:52Z
2022-05-20T00:10:13Z,42.805,6.029,13.3014,4.60047,2470.74,2022-5-20T02:11:55Z
2022-05-20T00:13:17Z,42.805,6.029,13.3005,4.60049,2470.754,2022-5-20T02:14:58Z
2022-05-20T00:16:20Z,42.805,6.029,13.3007,4.60044,2470.717,2022-5-20T02:18:01Z
2022-05-20T00:19:23Z,42.805,6.029,13.3015,4.60051,2470.754,2022-5-20T02:21:04Z
2022-05-20T00:22:26Z,42.805,6.029,13.3006,4.60049,2470.754,2022-5-20T02:24:07Z
2022-05-20T00:25:29Z,42.805,6.029,13.3005,4.60059,2470.73,2022-5-20T02:27:10Z
2022-05-20T00:28:32Z,42.805,6.029,13.3006,4.60051,2470.717,2022-5-20T02:30:13Z
2022-05-20T00:31:35Z,42.805,6.029,13.3010,4.60054,2470.754,2022-5-20T02:33:17Z
2022-05-20T00:34:38Z,42.805,6.029,13.3011,4.60049,2470.763,2022-5-20T02:36:20Z
2022-05-20T00:37:41Z,42.805,6.029,13.3006,4.60050,2470.693,2022-5-20T02:39:23Z
2022-05-20T00:40:45Z,42.805,6.029,13.3010,4.60046,2470.717,2022-5-20T02:42:26Z
2022-05-20T00:43:48Z,42.805,6.029,13.3007,4.60047,2470.717,2022-5-20T02:45:29Z
2022-05-20T00:46:51Z,42.805,6.029,13.3005,4.60051,2470.717,2022-5-20T02:48:32Z
2022-05-20T00:49:54Z,42.805,6.029,13.3011,4.60062,2470.717,2022-5-20T02:51:35Z
2022-05-20T00:52:57Z,42.805,6.029,13.3014,4.60067,2470.754,2022-5-20T02:54:38Z
2022-05-20T00:56:00Z,42.805,6.029,13.3013,4.60068,2470.717,2022-5-20T02:57:42Z
2022-05-20T00:59:03Z,42.805,6.029,13.3014,4.60049,2470.717,2022-5-20T03:00:45Z
2022-05-20T01:02:06Z,42.805,6.029,13.3012,4.60049,2470.74,2022-5-20T03:03:48Z
2022-05-20T01:05:10Z,42.805,6.029,13.3014,4.60054,2470.717,2022-5-20T03:06:51Z
2022-05-20T01:08:13Z,42.805,6.029,13.3010,4.60052,2470.693,2022-5-20T03:09:54Z
2022-05-20T01:11:16Z,42.805,6.029,13.3006,4.60049,2470.717,2022-5-20T03:12:57Z
2022-05-20T01:14:19Z,42.805,6.029,13.3014,4.60054,2470.693,2022-5-20T03:16:00Z
2022-05-20T01:17:22Z,42.805,6.029,13.3006,4.60047,2470.717,2022-5-20T03:19:03Z
2022-05-20T01:20:25Z,42.805,6.029,13.3006,4.60059,2470.693,2022-5-20T03:22:06Z
2022-05-20T01:23:28Z,42.805,6.029,13.3022,4.60072,2470.717,2022-5-20T03:25:10Z
2022-05-20T01:26:31Z,42.805,6.029,13.3007,4.60059,2470.717,2022-5-20T03:28:13Z
2022-05-20T01:29:35Z,42.805,6.029,13.3011,4.60045,2470.693,2022-5-20T03:31:16Z
2022-05-20T01:32:38Z,42.805,6.029,13.3015,4.60054,2470.693,2022-5-20T03:34:19Z
2022-05-20T01:35:41Z,42.805,6.029,13.3011,4.60058,2470.707,2022-5-20T03:37:22Z
2022-05-20T01:38:44Z,42.805,6.029,13.3013,4.60053,2470.679,2022-5-20T03:40:25Z
2022-05-20T01:41:47Z,42.805,6.029,13.3011,4.60074,2470.67,2022-5-20T03:43:28Z
2022-05-20T01:44:50Z,42.805,6.029,13.3013,4.60057,2470.707,2022-5-20T03:46:31Z
2022-05-20T01:47:53Z,42.805,6.029,13.3011,4.60059,2470.693,2022-5-20T03:49:35Z
2022-05-20T01:50:56Z,42.805,6.029,13.3007,4.60053,2470.707,2022-5-20T03:52:38Z
2022-05-20T01:54:00Z,42.805,6.029,13.3021,4.60062,2470.707,2022-5-20T03:55:41Z
2022-05-20T01:57:03Z,42.805,6.029,13.3010,4.60047,2470.684,2022-5-20T03:58:44Z
2022-05-20T02:00:06Z,42.805,6.029,13.3014,4.60048,2470.684,2022-5-20T04:01:47Z
2022-05-20T02:03:09Z,42.805,6.029,13.3011,4.60052,2470.707,2022-5-20T04:04:50Z
2022-05-20T02:06:12Z,42.805,6.029,13.3004,4.60050,2470.661,2022-5-20T04:07:53Z
2022-05-20T02:09:15Z,42.805,6.029,13.3008,4.60063,2470.693,2022-5-20T04:10:56Z
2022-05-20T02:12:18Z,42.805,6.029,13.3021,4.60057,2470.646,2022-5-20T04:14:00Z
2022-05-20T02:15:21Z,42.805,6.029,13.3022,4.60074,2470.693,2022-5-20T04:17:03Z
2022-05-20T02:18:24Z,42.805,6.029,13.3004,4.60047,2470.684,2022-5-20T04:20:06Z
2022-05-20T02:21:28Z,42.805,6.029,13.3009,4.60052,2470.707,2022-5-20T04:23:09Z
2022-05-20T02:24:31Z,42.805,6.029,13.3011,4.60049,2470.684,2022-5-20T04:26:12Z
2022-05-20T02:27:34Z,42.805,6.029,13.3009,4.60052,2470.646,2022-5-20T04:29:15Z
2022-05-20T02:30:37Z,42.805,6.029,13.3014,4.60058,2470.67,2022-5-20T04:32:18Z
2022-05-20T02:33:40Z,42.805,6.029,13.3011,4.60044,2470.646,2022-5-20T04:35:21Z
2022-05-20T02:36:43Z,42.805,6.029,13.3010,4.60049,2470.67,2022-5-20T04:38:25Z
2022-05-20T02:39:46Z,42.805,6.029,13.3004,4.60052,2470.646,2022-5-20T04:41:28Z
2022-05-20T02:42:49Z,42.805,6.029,13.3011,4.60045,2470.646,2022-5-20T04:44:31Z
2022-05-20T02:45:53Z,42.805,6.029,13.3010,4.60059,2470.67,2022-5-20T04:47:34Z
2022-05-20T02:48:56Z,42.805,6.029,13.3008,4.60063,2470.67,2022-5-20T04:50:37Z
2022-05-20T02:51:59Z,42.805,6.029,13.3012,4.60057,2470.661,2022-5-20T04:53:40Z
2022-05-20T02:55:02Z,42.805,6.029,13.3015,4.60055,2470.624,2022-5-20T04:56:43Z
2022-05-20T02:58:05Z,42.805,6.029,13.3008,4.60059,2470.646,2022-5-20T04:59:46Z
2022-05-20T03:01:08Z,42.805,6.029,13.3014,4.60052,2470.67,2022-5-20T05:02:50Z
2022-05-20T03:04:11Z,42.805,6.029,13.3012,4.60067,2470.661,2022-5-20T05:05:53Z
2022-05-20T03:07:14Z,42.805,6.029,13.3012,4.60049,2470.624,2022-5-20T05:08:56Z
2022-05-20T03:10:18Z,42.805,6.029,13.3008,4.60049,2470.661,2022-5-20T05:11:59Z
2022-05-20T03:13:21Z,42.805,6.029,13.3004,4.60050,2470.67,2022-5-20T05:15:02Z
2022-05-20T03:16:24Z,42.805,6.029,13.3006,4.60054,2470.661,2022-5-20T05:18:05Z
2022-05-20T03:19:27Z,42.805,6.029,13.3002,4.60053,2470.684,2022-5-20T05:21:08Z
2022-05-20T03:22:30Z,42.805,6.029,13.3014,4.60046,2470.637,2022-5-20T05:24:11Z
2022-05-20T03:25:33Z,42.805,6.029,13.3009,4.60079,2470.646,2022-5-20T05:27:14Z
2022-05-20T03:28:36Z,42.805,6.029,13.3015,4.60062,2470.624,2022-5-20T05:30:18Z
2022-05-20T03:31:39Z,42.805,6.029,13.3009,4.60069,2470.637,2022-5-20T05:33:21Z
2022-05-20T03:34:43Z,42.805,6.029,13.3007,4.60045,2470.624,2022-5-20T05:36:24Z
2022-05-20T03:37:46Z,42.805,6.029,13.3007,4.60048,2470.624,2022-5-20T05:39:27Z
2022-05-20T03:40:49Z,42.805,6.029,13.3011,4.60046,2470.637,2022-5-20T05:42:30Z
2022-05-20T03:43:52Z,42.805,6.029,13.3016,4.60060,2470.646,2022-5-20T05:45:33Z
2022-05-20T03:46:55Z,42.805,6.029,13.3012,4.60051,2470.6,2022-5-20T05:48:36Z
2022-05-20T03:49:58Z,42.805,6.029,13.3009,4.60057,2470.637,2022-5-20T05:51:39Z
2022-05-20T03:53:01Z,42.805,6.029,13.3014,4.60057,2470.6,2022-5-20T05:54:43Z
2022-05-20T03:56:04Z,42.805,6.029,13.3014,4.60062,2470.624,2022-5-20T05:57:46Z
2022-05-20T03:59:08Z,42.805,6.029,13.3007,4.60067,2470.614,2022-5-20T06:00:49Z
2022-05-20T04:02:11Z,42.805,6.029,13.3011,4.60062,2470.6,2022-5-20T06:03:52Z
2022-05-20T04:05:14Z,42.805,6.029,13.3019,4.60067,2470.637,2022-5-20T06:06:55Z
2022-05-20T04:08:17Z,42.805,6.029,13.3014,4.60064,2470.6,2022-5-20T06:09:58Z
2022-05-20T04:11:20Z,42.805,6.029,13.3008,4.60050,2470.624,2022-5-20T06:13:01Z
2022-05-20T04:14:23Z,42.805,6.029,13.3014,4.60049,2470.646,2022-5-20T06:16:04Z
2022-05-20T04:17:26Z,42.805,6.029,13.3007,4.60052,2470.577,2022-5-20T06:19:08Z
2022-05-20T04:20:29Z,42.805,6.029,13.3011,4.60055,2470.6,2022-5-20T06:22:11Z
2022-05-20T04:23:32Z,42.805,6.029,13.3009,4.60054,2470.6,2022-5-20T06:25:14Z
2022-05-20T04:26:36Z,42.805,6.029,13.3017,4.60057,2470.614,2022-5-20T06:28:17Z
2022-05-20T04:29:39Z,42.805,6.029,13.3011,4.60054,2470.646,2022-5-20T06:31:20Z
2022-05-20T04:32:42Z,42.805,6.029,13.3016,4.60062,2470.624,2022-5-20T06:34:23Z
2022-05-20T04:35:45Z,42.805,6.029,13.3014,4.60052,2470.6,2022-5-20T06:37:26Z
2022-05-20T04:38:48Z,42.805,6.029,13.3012,4.60058,2470.6,2022-5-20T06:40:29Z
2022-05-20T04:41:51Z,42.805,6.029,13.3011,4.60066,2470.614,2022-5-20T06:43:32Z
2022-05-20T04:44:54Z,42.805,6.029,13.3013,4.60054,2470.6,2022-5-20T06:46:36Z
2022-05-20T04:47:57Z,42.805,6.029,13.3011,4.60052,2470.637,2022-5-20T06:49:39Z
2022-05-20T04:51:01Z,42.805,6.029,13.3012,4.60062,2470.591,2022-5-20T06:52:42Z
2022-05-20T04:54:04Z,42.805,6.029,13.3011,4.60053,2470.6,2022-5-20T06:55:45Z
2022-05-20T04:57:07Z,42.805,6.029,13.3005,4.60064,2470.614,2022-5-20T06:58:48Z
2022-05-20T05:00:10Z,42.805,6.029,13.3006,4.60057,2470.591,2022-5-20T07:01:51Z
2022-05-20T05:03:13Z,42.805,6.029,13.3010,4.60047,2470.553,2022-5-20T07:04:54Z
2022-05-20T05:06:16Z,42.805,6.029,13.3010,4.60057,2470.6,2022-5-20T07:07:57Z
2022-05-20T05:09:19Z,42.805,6.029,13.3009,4.60058,2470.637,2022-5-20T07:11:01Z
2022-05-20T05:12:22Z,42.805,6.029,13.3015,4.60059,2470.577,2022-5-20T07:14:04Z
2022-05-20T05:15:25Z,42.805,6.029,13.3017,4.60052,2470.6,2022-5-20T07:17:07Z
2022-05-20T05:18:29Z,42.805,6.029,13.3009,4.60049,2470.614,2022-5-20T07:20:10Z
2022-05-20T05:21:32Z,42.805,6.029,13.3007,4.60058,2470.6,2022-5-20T07:23:13Z
2022-05-20T05:24:35Z,42.805,6.029,13.3017,4.60057,2470.591,2022-5-20T07:26:16Z
2022-05-20T05:27:38Z,42.805,6.029,13.3009,4.60054,2470.6,2022-5-20T07:29:19Z
2022-05-20T05:30:41Z,42.805,6.029,13.3007,4.60049,2470.614,2022-5-20T07:32:22Z
2022-05-20T05:33:44Z,42.805,6.029,13.3006,4.60050,2470.6,2022-5-20T07:35:26Z
2022-05-20T05:36:47Z,42.805,6.029,13.3016,4.60072,2470.577,2022-5-20T07:38:29Z
2022-05-20T05:39:50Z,42.805,6.029,13.3008,4.60050,2470.577,2022-5-20T07:41:32Z
2022-05-20T05:42:54Z,42.805,6.029,13.3009,4.60064,2470.577,2022-5-20T07:44:35Z
2022-05-20T05:45:57Z,42.805,6.029,13.3008,4.60057,2470.6,2022-5-20T07:47:38Z
2022-05-20T05:49:00Z,42.805,6.029,13.3009,4.60055,2470.6,2022-5-20T07:50:41Z
2022-05-20T05:52:03Z,42.805,6.029,13.3013,4.60050,2470.591,2022-5-20T07:53:44Z
2022-05-20T05:55:06Z,42.805,6.029,13.3011,4.60058,2470.577,2022-5-20T07:56:47Z
2022-05-20T05:58:09Z,42.805,6.029,13.3011,4.60049,2470.6,2022-5-20T07:59:51Z
2022-05-20T06:01:12Z,42.805,6.029,13.3013,4.60060,2470.577,2022-5-20T08:02:54Z
2022-05-20T06:04:15Z,42.805,6.029,13.3015,4.60064,2470.6,2022-5-20T08:05:57Z
2022-05-20T06:07:19Z,42.805,6.029,13.3009,4.60049,2470.553,2022-5-20T08:09:00Z
2022-05-20T06:10:22Z,42.805,6.029,13.3009,4.60054,2470.637,2022-5-20T08:12:03Z
2022-05-20T06:13:25Z,42.805,6.029,13.3004,4.60054,2470.577,2022-5-20T08:15:06Z
2022-05-20T06:16:28Z,42.805,6.029,13.3018,4.60089,2470.614,2022-5-20T08:18:09Z
2022-05-20T06:19:31Z,42.805,6.029,13.3012,4.60066,2470.614,2022-5-20T08:21:12Z
2022-05-20T06:22:34Z,42.805,6.029,13.3011,4.60049,2470.614,2022-5-20T08:24:15Z
2022-05-20T06:25:37Z,42.805,6.029,13.3009,4.60053,2470.6,2022-5-20T08:27:19Z
2022-05-20T06:28:40Z,42.805,6.029,13.3007,4.60057,2470.577,2022-5-20T08:30:22Z
2022-05-20T06:31:44Z,42.805,6.029,13.3012,4.60066,2470.646,2022-5-20T08:33:25Z
2022-05-20T06:34:47Z,42.805,6.029,13.3006,4.60053,2470.614,2022-5-20T08:36:28Z
2022-05-20T06:37:50Z,42.805,6.029,13.3014,4.60072,2470.614,2022-5-20T08:39:31Z
2022-05-20T06:40:53Z,42.805,6.029,13.3010,4.60062,2470.6,2022-5-20T08:42:34Z
2022-05-20T06:43:56Z,42.805,6.029,13.3008,4.60050,2470.614,2022-5-20T08:45:37Z
2022-05-20T06:46:59Z,42.805,6.029,13.3008,4.60049,2470.624,2022-5-20T08:48:40Z
2022-05-20T06:50:02Z,42.805,6.029,13.3010,4.60051,2470.577,2022-5-20T08:51:44Z
2022-05-20T06:53:05Z,42.805,6.029,13.3006,4.60056,2470.637,2022-5-20T08:54:47Z
2022-05-20T06:56:08Z,42.805,6.029,13.3009,4.60069,2470.614,2022-5-20T08:57:50Z
2022-05-20T06:59:12Z,42.805,6.029,13.3011,4.60062,2470.614,2022-5-20T09:00:53Z
2022-05-20T07:02:15Z,42.805,6.029,13.3019,4.60077,2470.646,2022-5-20T09:03:56Z
2022-05-20T07:05:18Z,42.805,6.029,13.3004,4.60057,2470.637,2022-5-20T09:06:59Z
2022-05-20T07:08:21Z,42.805,6.029,13.3010,4.60047,2470.646,2022-5-20T09:10:02Z
2022-05-20T07:11:24Z,42.805,6.029,13.3014,4.60057,2470.646,2022-5-20T09:13:05Z
2022-05-20T07:14:27Z,42.805,6.029,13.3020,4.60073,2470.661,2022-5-20T09:16:09Z
2022-05-20T07:17:30Z,42.805,6.029,13.3012,4.60062,2470.637,2022-5-20T09:19:12Z
2022-05-20T07:20:33Z,42.805,6.029,13.3006,4.60052,2470.646,2022-5-20T09:22:15Z
2022-05-20T07:23:37Z,42.805,6.029,13.3011,4.60064,2470.661,2022-5-20T09:25:18Z
2022-05-20T07:26:40Z,42.805,6.029,13.3006,4.60051,2470.661,2022-5-20T09:28:21Z
2022-05-20T07:29:43Z,42.805,6.029,13.3009,4.60057,2470.646,2022-5-20T09:31:24Z
2022-05-20T07:32:46Z,42.805,6.029,13.3013,4.60069,2470.646,2022-5-20T09:34:27Z
2022-05-20T07:35:49Z,42.805,6.029,13.3011,4.60057,2470.693,2022-5-20T09:37:30Z
2022-05-20T07:38:52Z,42.805,6.029,13.3007,4.60049,2470.6,2022-5-20T09:40:34Z
2022-05-20T07:41:55Z,42.805,6.029,13.3010,4.60057,2470.624,2022-5-20T09:43:37Z
2022-05-20T07:44:58Z,42.805,6.029,13.3015,4.60069,2470.67,2022-5-20T09:46:40Z
2022-05-20T07:48:02Z,42.805,6.029,13.3012,4.60062,2470.684,2022-5-20T09:49:43Z
2022-05-20T07:51:05Z,42.805,6.029,13.3011,4.60075,2470.661,2022-5-20T09:52:46Z
2022-05-20T07:54:08Z,42.805,6.029,13.3007,4.60054,2470.646,2022-5-20T09:55:49Z
2022-05-20T07:57:11Z,42.805,6.029,13.3015,4.60067,2470.661,2022-5-20T09:58:52Z
2022-05-20T08:00:14Z,42.805,6.029,13.3014,4.60081,2470.637,2022-5-20T10:01:55Z
2022-05-20T08:03:17Z,42.805,6.029,13.3013,4.60065,2470.624,2022-5-20T10:04:58Z
2022-05-20T08:06:20Z,42.805,6.029,13.3008,4.60062,2470.661,2022-5-20T10:08:02Z
2022-05-20T08:09:23Z,42.805,6.029,13.3012,4.60080,2470.674,2022-5-20T10:11:05Z
2022-05-20T08:12:27Z,42.805,6.029,13.3015,4.60079,2470.646,2022-5-20T10:14:08Z
2022-05-20T08:15:30Z,42.805,6.029,13.3015,4.60065,2470.684,2022-5-20T10:17:11Z
2022-05-20T08:18:33Z,42.805,6.029,13.3010,4.60062,2470.637,2022-5-20T10:20:14Z
2022-05-20T08:21:36Z,42.805,6.029,13.3010,4.60052,2470.684,2022-5-20T10:23:17Z
2022-05-20T08:24:39Z,42.805,6.029,13.3016,4.60056,2470.684,2022-5-20T10:26:20Z
2022-05-20T08:27:42Z,42.805,6.029,13.3009,4.60053,2470.67,2022-5-20T10:29:23Z
2022-05-20T08:30:45Z,42.805,6.029,13.3009,4.60069,2470.684,2022-5-20T10:32:27Z
2022-05-20T08:33:48Z,42.805,6.029,13.3014,4.60082,2470.684,2022-5-20T10:35:30Z
2022-05-20T08:36:52Z,42.805,6.029,13.3015,4.60055,2470.67,2022-5-20T10:38:33Z
2022-05-20T08:39:55Z,42.805,6.029,13.3010,4.60061,2470.67,2022-5-20T10:41:36Z
2022-05-20T08:42:58Z,42.805,6.029,13.3006,4.60064,2470.67,2022-5-20T10:44:39Z
2022-05-20T08:46:01Z,42.805,6.029,13.3018,4.60063,2470.693,2022-5-20T10:47:42Z
2022-05-20T08:49:04Z,42.805,6.029,13.3008,4.60052,2470.646,2022-5-20T10:50:45Z
2022-05-20T08:52:07Z,42.805,6.029,13.3011,4.60055,2470.646,2022-5-20T10:53:49Z
2022-05-20T08:55:10Z,42.805,6.029,13.3008,4.60060,2470.707,2022-5-20T10:56:52Z
2022-05-20T08:58:13Z,42.805,6.029,13.3015,4.60069,2470.703,2022-5-20T10:59:55Z
2022-05-20T09:01:17Z,42.805,6.029,13.3010,4.60052,2470.684,2022-5-20T11:02:58Z
2022-05-20T09:04:20Z,42.805,6.029,13.3018,4.60072,2470.707,2022-5-20T11:06:01Z
2022-05-20T09:07:23Z,42.805,6.029,13.3006,4.60055,2470.684,2022-5-20T11:09:04Z
2022-05-20T09:10:26Z,42.805,6.029,13.3024,4.60070,2470.693,2022-5-20T11:12:07Z
2022-05-20T09:13:29Z,42.805,6.029,13.3015,4.60080,2470.67,2022-5-20T11:15:10Z
2022-05-20T09:16:32Z,42.805,6.029,13.3006,4.60052,2470.661,2022-5-20T11:18:13Z
2022-05-20T09:19:35Z,42.805,6.029,13.3011,4.60050,2470.707,2022-5-20T11:21:17Z
2022-05-20T09:22:38Z,42.805,6.029,13.3008,4.60068,2470.646,2022-5-20T11:24:20Z
2022-05-20T09:25:42Z,42.805,6.029,13.3007,4.60050,2470.67,2022-5-20T11:27:23Z
2022-05-20T09:28:45Z,42.805,6.029,13.3008,4.60049,2470.67,2022-5-20T11:30:26Z
2022-05-20T09:31:48Z,42.805,6.029,13.3012,4.60056,2470.684,2022-5-20T11:33:29Z
2022-05-20T09:34:51Z,42.805,6.029,13.3015,4.60056,2470.684,2022-5-20T11:36:32Z
2022-05-20T09:37:54Z,42.805,6.029,13.3015,4.60072,2470.67,2022-5-20T11:39:35Z
2022-05-20T09:40:57Z,42.805,6.029,13.3011,4.60065,2470.693,2022-5-20T11:42:38Z
2022-05-20T09:44:00Z,42.805,6.029,13.3010,4.60052,2470.67,2022-5-20T11:45:42Z
2022-05-20T09:47:03Z,42.805,6.029,13.3007,4.60051,2470.661,2022-5-20T11:48:45Z
2022-05-20T09:50:07Z,42.805,6.029,13.3018,4.60070,2470.67,2022-5-20T11:51:48Z
2022-05-20T09:53:10Z,42.805,6.029,13.3010,4.60072,2470.693,2022-5-20T11:54:51Z
2022-05-20T09:56:13Z,42.805,6.029,13.3018,4.60078,2470.684,2022-5-20T11:57:54Z
2022-05-20T09:59:16Z,42.805,6.029,13.3011,4.60060,2470.646,2022-5-20T12:00:57Z
2022-05-20T10:02:19Z,42.805,6.029,13.3027,4.60072,2470.646,2022-5-20T12:04:00Z
2022-05-20T10:05:22Z,42.805,6.029,13.3015,4.60067,2470.707,2022-5-20T12:07:03Z
2022-05-20T10:08:25Z,42.805,6.029,13.3011,4.60057,2470.693,2022-5-20T12:10:07Z
2022-05-20T10:11:28Z,42.805,6.029,13.3005,4.60062,2470.693,2022-5-20T12:13:10Z
2022-05-20T10:14:32Z,42.805,6.029,13.3011,4.60057,2470.646,2022-5-20T12:16:13Z
2022-05-20T10:17:35Z,42.805,6.029,13.3021,4.60057,2470.67,2022-5-20T12:19:16Z
2022-05-20T10:20:38Z,42.805,6.029,13.3016,4.60072,2470.67,2022-5-20T12:22:19Z
2022-05-20T10:23:41Z,42.805,6.029,13.3014,4.60084,2470.67,2022-5-20T12:25:22Z
2022-05-20T10:26:44Z,42.805,6.029,13.3009,4.60072,2470.661,2022-5-20T12:28:25Z
2022-05-20T10:29:47Z,42.805,6.029,13.3004,4.60051,2470.624,2022-5-20T12:31:29Z
2022-05-20T10:32:50Z,42.805,6.029,13.3009,4.60081,2470.684,2022-5-20T12:34:32Z
2022-05-20T10:35:53Z,42.805,6.029,13.3009,4.60044,2470.684,2022-5-20T12:37:35Z
2022-05-20T10:38:57Z,42.805,6.029,13.3012,4.60058,2470.661,2022-5-20T12:40:38Z
2022-05-20T10:42:00Z,42.805,6.029,13.3015,4.60066,2470.661,2022-5-20T12:43:41Z
2022-05-20T10:45:03Z,42.805,6.029,13.3007,4.60056,2470.646,2022-5-20T12:46:44Z
2022-05-20T10:48:06Z,42.805,6.029,13.3013,4.60053,2470.646,2022-5-20T12:49:47Z
2022-05-20T10:51:09Z,42.805,6.029,13.3012,4.60057,2470.646,2022-5-20T12:52:50Z
2022-05-20T10:54:12Z,42.805,6.029,13.3007,4.60057,2470.67,2022-5-20T12:55:54Z
2022-05-20T10:57:15Z,42.805,6.029,13.3011,4.60050,2470.624,2022-5-20T12:58:57Z
2022-05-20T11:00:18Z,42.805,6.029,13.3013,4.60064,2470.646,2022-5-20T13:02:00Z
2022-05-20T11:03:22Z,42.805,6.029,13.3013,4.60064,2470.646,2022-5-20T13:05:03Z
2022-05-20T11:06:25Z,42.805,6.029,13.3009,4.60052,2470.661,2022-5-20T13:08:06Z
2022-05-20T11:09:28Z,42.805,6.029,13.3011,4.60049,2470.661,2022-5-20T13:11:09Z
2022-05-20T11:12:31Z,42.805,6.029,13.3008,4.60049,2470.661,2022-5-20T13:14:12Z
2022-05-20T11:15:34Z,42.805,6.029,13.3011,4.60064,2470.646,2022-5-20T13:17:15Z
2022-05-20T11:18:37Z,42.805,6.029,13.3008,4.60050,2470.624,2022-5-20T13:20:19Z
2022-05-20T11:21:40Z,42.805,6.029,13.3015,4.60052,2470.624,2022-5-20T13:23:22Z
2022-05-20T11:24:43Z,42.805,6.029,13.3007,4.60053,2470.646,2022-5-20T13:26:25Z
2022-05-20T11:27:47Z,42.805,6.029,13.3011,4.60057,2470.646,2022-5-20T13:29:28Z
2022-05-20T11:30:50Z,42.805,6.029,13.3016,4.60069,2470.6,2022-5-20T13:32:31Z
2022-05-20T11:33:53Z,42.805,6.029,13.3015,4.60067,2470.614,2022-5-20T13:35:34Z
2022-05-20T11:36:56Z,42.805,6.029,13.3009,4.60055,2470.624,2022-5-20T13:38:37Z
2022-05-20T11:39:59Z,42.805,6.029,13.3008,4.60057,2470.637,2022-5-20T13:41:40Z
2022-05-20T11:43:02Z,42.805,6.029,13.3010,4.60057,2470.637,2022-5-20T13:44:44Z
2022-05-20T11:46:05Z,42.805,6.029,13.3009,4.60052,2470.624,2022-5-20T13:47:47Z
2022-05-20T11:49:08Z,42.805,6.029,13.3011,4.60064,2470.637,2022-5-20T13:50:50Z
2022-05-20T11:52:12Z,42.805,6.029,13.3004,4.60060,2470.637,2022-5-20T13:53:53Z
2022-05-20T11:55:15Z,42.805,6.029,13.3011,4.60049,2470.637,2022-5-20T13:56:56Z
2022-05-20T11:58:18Z,42.805,6.029,13.3011,4.60049,2470.6,2022-5-20T13:59:59Z
2022-05-20T12:01:21Z,42.805,6.029,13.3011,4.60059,2470.637,2022-5-20T14:03:02Z
2022-05-20T12:04:24Z,42.805,6.029,13.3016,4.60063,2470.591,2022-5-20T14:06:05Z
2022-05-20T12:07:27Z,42.805,6.029,13.3011,4.60054,2470.646,2022-5-20T14:09:09Z
2022-05-20T12:10:30Z,42.805,6.029,13.3013,4.60047,2470.586,2022-5-20T14:12:12Z
2022-05-20T12:13:33Z,42.805,6.029,13.3006,4.60049,2470.637,2022-5-20T14:15:15Z
2022-05-20T12:16:37Z,42.805,6.029,13.3009,4.60059,2470.624,2022-5-20T14:18:18Z
2022-05-20T12:19:40Z,42.805,6.029,13.3006,4.60055,2470.637,2022-5-20T14:21:21Z
2022-05-20T12:22:43Z,42.805,6.029,13.3009,4.60049,2470.624,2022-5-20T14:24:24Z
2022-05-20T12:25:46Z,42.805,6.029,13.3011,4.60055,2470.577,2022-5-20T14:27:27Z
2022-05-20T12:28:49Z,42.805,6.029,13.3008,4.60052,2470.591,2022-5-20T14:30:30Z
2022-05-20T12:31:52Z,42.805,6.029,13.3012,4.60060,2470.6,2022-5-20T14:33:34Z
2022-05-20T12:34:55Z,42.805,6.029,13.3012,4.60057,2470.591,2022-5-20T14:36:37Z
2022-05-20T12:37:58Z,42.805,6.029,13.3014,4.60077,2470.6,2022-5-20T14:39:40Z
2022-05-20T12:41:02Z,42.805,6.029,13.3014,4.60066,2470.6,2022-5-20T14:42:43Z
2022-05-20T12:44:05Z,42.805,6.029,13.3010,4.60063,2470.577,2022-5-20T14:45:46Z
2022-05-20T12:47:08Z,42.805,6.029,13.3017,4.60080,2470.553,2022-5-20T14:48:49Z
2022-05-20T12:50:11Z,42.805,6.029,13.3015,4.60077,2470.553,2022-5-20T14:51:52Z
2022-05-20T12:53:14Z,42.805,6.029,13.3019,4.60064,2470.591,2022-5-20T14:54:55Z
2022-05-20T12:56:17Z,42.805,6.029,13.3013,4.60063,2470.614,2022-5-20T14:57:59Z
2022-05-20T12:59:20Z,42.805,6.029,13.3010,4.60074,2470.577,2022-5-20T15:01:02Z
2022-05-20T13:02:23Z,42.805,6.029,13.3019,4.60063,2470.6,2022-5-20T15:04:05Z
2022-05-20T13:05:27Z,42.805,6.029,13.3029,4.60089,2470.591,2022-5-20T15:07:08Z
2022-05-20T13:08:30Z,42.805,6.029,13.3015,4.60076,2470.6,2022-5-20T15:10:11Z
2022-05-20T13:11:33Z,42.805,6.029,13.3024,4.60062,2470.577,2022-5-20T15:13:14Z
2022-05-20T13:14:36Z,42.805,6.029,13.3010,4.60082,2470.591,2022-5-20T15:16:17Z
2022-05-20T13:17:39Z,42.805,6.029,13.3019,4.60069,2470.614,2022-5-20T15:19:20Z
2022-05-20T13:20:42Z,42.805,6.029,13.3010,4.60054,2470.614,2022-5-20T15:22:24Z
2022-05-20T13:23:45Z,42.805,6.029,13.3009,4.60047,2470.553,2022-5-20T15:25:27Z
2022-05-20T13:26:48Z,42.805,6.029,13.3009,4.60061,2470.614,2022-5-20T15:28:30Z
2022-05-20T13:29:52Z,42.805,6.029,13.3011,4.60057,2470.577,2022-5-20T15:31:33Z
2022-05-20T13:32:55Z,42.805,6.029,13.3010,4.60061,2470.591,2022-5-20T15:34:36Z
2022-05-20T13:35:58Z,42.805,6.029,13.3007,4.60054,2470.661,2022-5-20T15:37:39Z
2022-05-20T13:39:01Z,42.805,6.029,13.3011,4.60080,2470.577,2022-5-20T15:40:42Z
2022-05-20T13:42:04Z,42.805,6.029,13.3011,4.60062,2470.591,2022-5-20T15:43:45Z
2022-05-20T13:45:07Z,42.805,6.029,13.3009,4.60059,2470.591,2022-5-20T15:46:49Z
2022-05-20T13:48:10Z,42.805,6.029,13.3015,4.60060,2470.544,2022-5-20T15:49:52Z
2022-05-20T13:51:13Z,42.805,6.029,13.3019,4.60079,2470.591,2022-5-20T15:52:55Z
2022-05-20T13:54:17Z,42.805,6.029,13.3009,4.60068,2470.591,2022-5-20T15:55:58Z
2022-05-20T13:57:20Z,42.805,6.029,13.3013,4.60062,2470.577,2022-5-20T15:59:01Z
2022-05-20T14:00:23Z,42.805,6.029,13.3018,4.60079,2470.567,2022-5-20T16:02:04Z
2022-05-20T14:03:26Z,42.805,6.029,13.3019,4.60067,2470.567,2022-5-20T16:05:07Z
2022-05-20T14:06:29Z,42.805,6.029,13.3015,4.60058,2470.553,2022-5-20T16:08:10Z
2022-05-20T14:09:32Z,42.805,6.029,13.3023,4.60066,2470.553,2022-5-20T16:11:14Z
2022-05-20T14:12:35Z,42.805,6.029,13.3020,4.60072,2470.553,2022-5-20T16:14:17Z
2022-05-20T14:15:38Z,42.805,6.029,13.3012,4.60092,2470.553,2022-5-20T16:17:20Z
2022-05-20T14:18:42Z,42.805,6.029,13.3018,4.60072,2470.567,2022-5-20T16:20:23Z
2022-05-20T14:21:45Z,42.805,6.029,13.3015,4.60064,2470.567,2022-5-20T16:23:26Z
2022-05-20T14:24:48Z,42.805,6.029,13.3011,4.60061,2470.591,2022-5-20T16:26:29Z
2022-05-20T14:27:51Z,42.805,6.029,13.3010,4.60060,2470.577,2022-5-20T16:29:32Z
2022-05-20T14:30:54Z,42.805,6.029,13.3013,4.60064,2470.591,2022-5-20T16:32:35Z
2022-05-20T14:33:57Z,42.805,6.029,13.3009,4.60075,2470.577,2022-5-20T16:35:39Z
2022-05-20T14:37:00Z,42.805,6.029,13.3031,4.60081,2470.553,2022-5-20T16:38:42Z
2022-05-20T14:40:03Z,42.805,6.029,13.3026,4.60087,2470.577,2022-5-20T16:41:45Z
2022-05-20T14:43:07Z,42.805,6.029,13.3024,4.60067,2470.553,2022-5-20T16:44:48Z
2022-05-20T14:46:10Z,42.805,6.029,13.3011,4.60077,2470.567,2022-5-20T16:47:51Z
2022-05-20T14:49:13Z,42.805,6.029,13.3008,4.60060,2470.553,2022-5-20T16:50:54Z
2022-05-20T14:52:16Z,42.805,6.029,13.3012,4.60056,2470.567,2022-5-20T16:53:57Z
2022-05-20T14:55:19Z,42.805,6.029,13.3009,4.60066,2470.544,2022-5-20T16:57:00Z
2022-05-20T14:58:22Z,42.805,6.029,13.3014,4.60061,2470.577,2022-5-20T17:00:04Z
2022-05-20T15:01:25Z,42.805,6.029,13.3018,4.60072,2470.544,2022-5-20T17:03:07Z
2022-05-20T15:04:28Z,42.805,6.029,13.3006,4.60069,2470.567,2022-5-20T17:06:10Z
2022-05-20T15:07:32Z,42.805,6.029,13.3009,4.60067,2470.553,2022-5-20T17:09:13Z
2022-05-20T15:10:35Z,42.805,6.029,13.3014,4.60062,2470.553,2022-5-20T17:12:16Z